Location: Unspecified
(17.6330°N, 0.0000°E)
Time: 10:18:29
(UTC+00:00)

A-11 Canister half - Pass Details

Date: 23 June 2019
Orbit: 1514 x 1685 km, 47.2° (Epoch: 16 July)

Event Time Altitude Azimuth Distance (km) Brightness Sun altitude
Rises 17:24:57 0° 320° (NW) 4,722 12.7 15.2°
Reaches altitude 10° 17:28:05 10° 323° (NW) 3,719 12.2 14.5°
Maximum altitude 17:37:22 66° 45° (NE) 1,633 9.3 12.4°
Drops below altitude 10° 17:46:29 10° 126° (SE) 3,666 10.4 10.4°
Sets 17:49:33 0° 129° (SE) 4,651 10.9 9.7°
